Flag for Poland Weather past 2 weeks in Radom, Poland

Now
71 °F

Sunny.


Feels Like: 76 °F
Forecast: 60 / 92 °F
Wind: 2 mph from Southeast

Location: Kielce

Current Time: Jul 4, 2015 at 9:07:42 AM

Latest Report: Jul 4, 2015 at 8:00 AM


Visibility: 19 mi

Pressure: 30.29 "Hg

Humidity: 59%

Dew point: 56 °F

Location of RadomLocation

Historic Weather in Radom — Graph

°F

Radom temperature yesterday

Maximum temperature yesterday: 82 °F (at 5:00 PM)
Minimum temperature yesterday: 50 °F (at 4:00 AM)
Average temperature yesterday: 69 °F

Past Weeks' High & Low Weather Summary

 TemperatureHumidityPressure
High82 °F (Jul 3, 5:00 PM)100% (Jun 20, 4:00 AM)30.40 "Hg (Jun 20, 4:00 AM)
Low39 °F (Jun 20, 4:00 AM)33% (Jul 3, 5:00 PM)29.76 "Hg (Jun 23, 5:00 AM)
Average60 °F75%30.09 "Hg
* Reported Jun 19 8:00 AM — Jul 4 7:00 AM, Radom, Weather by CustomWeather, © 2015

Note: Actual official high and low records may vary slightly from our data, if they occured in-between our weather recording intervals... More about our weather records

Advertising

Radom weather history for previous 24 hours

 ConditionsComfort  
Time TempWeatherWind HumidityBarometerVisibility
7:00 AM
Sat, Jul 4
64 °FSunny.1 mph73%30.31 "Hg19 mi
6:00 AM57 °FSunny.1 mph83%30.33 "Hg17 mi
5:00 AM54 °FSunny.1 mph87%30.34 "Hg19 mi
4:00 AM54 °FClear.1 mph89%30.34 "Hg12 mi
3:00 AM56 °FClear.1 mph83%30.35 "Hg19 mi
2:00 AM57 °FClear.1 mph82%30.37 "Hg16 mi
1:00 AM58 °FClear.1 mph80%30.37 "Hg16 mi
12:00 AM62 °FClear.1 mph71%30.37 "Hg19 mi
11:00 PM
Fri, Jul 3
64 °FClear.1 mph67%30.36 "Hg25 mi
10:00 PM65 °FClear.2 mph64%30.36 "Hg25 mi
9:00 PM70 °FClear.2 mph56%30.35 "Hg31 mi
8:00 PM78 °FSunny.2 mph41%30.32 "Hg25 mi
7:00 PM80 °FSunny.2 mph36%30.32 "Hg28 mi
6:00 PM81 °FSunny.3 mph34%30.33 "Hg19 mi
5:00 PM82 °FPassing clouds.2 mph33%30.33 "Hg22 mi
4:00 PM80 °FPassing clouds.5 mph35%30.34 "Hg25 mi
3:00 PM81 °FPassing clouds.3 mph36%30.35 "Hg25 mi
2:00 PM80 °FScattered clouds.5 mph36%30.36 "Hg22 mi
1:00 PM79 °FScattered clouds.3 mph40%30.37 "Hg22 mi
12:00 PM79 °FPartly sunny.3 mph40%30.37 "Hg22 mi
11:00 AM77 °FPartly sunny.3 mph41%30.39 "Hg22 mi
10:00 AM76 °FPassing clouds.3 mph42%30.39 "Hg16 mi
9:00 AM74 °FSunny.2 mph48%30.39 "Hg22 mi
Weather by CustomWeather, © 2015

See weather overviewHow to use our weather pages